www.pogodaiklimat.ru

Погода и климат >> Архив погоды >> Ирак >> Karbalaa


ПОГОДА в Karbalaa

  • Прогноз погоды в Karbalaa
  • Монитор погоды в Karbalaa
  • Климат города

АРХИВ ПОГОДЫ в Karbalaa

Время (UTC), дата Ветер
(напр.,м/с)
 
Видим.   Явления Облачность Т
(С)
Тd
(С)
f
(%)
Тe
(С)
Тes
(С)
Комфортность P
(гПа)
Po
(гПа)
Тmin
(С)
Tmax
(С)
R
(мм)
R24
(мм)
S
(см)
12 18.02 СЗ 4 10 км 10/10 750 м
[Cu Sc]
+18.1 +11.1 64 +18 +18 1008.5 1009.0
15 18.02 штиль 0 5000 м ливневой дождь 10/10 750 м
[Cu Sc]
+15.8 +12.5 81 +16 +16 1009.6 1010.0
18 18.02 С 5 3000 м ливневой дождь 10/10 750 м
[Cu Sc]
+14.0 +11.1 83 +12 +12 1010.7 1011.0 +18.4 3
21 18.02 штиль 0 4000 м слабый дождь 10/10 840 м
[Sc]
+14.0 +11.5 85 +14 +14 1011.1 1011.0
06 19.02 С 8 10 км ясно +12.5 +7.3 71 +10 +10 1014.0 1014.0 +11.0 1
09 19.02 С 6 10 км 5/5 840 м
[Cu med, cong]
+15.1 +8.8 66 +14 +16 1015.0 1015.0
12 19.02 С 5 10 км 8/8 840 м
[Cu med, cong]
+16.5 +10.4 67 +16 +16 1014.8 1015.0
15 19.02 С 3 10 км 6/6 750 м
[Cu Sc]
+15.0 +9.8 71 +14 +14 1016.2 1016.0
18 19.02 СЗ 2 10 км ясно +13.0 +10.3 84 +12 +12 1017.4 1017.0 +17.4
21 19.02 штиль 0 10 км ясно +11.9 +10.1 89 +11 +11 1017.8 1018.0
03 20.02 штиль 0 10 км 4/0
[Ac trans]
+9.3 +8.0 92 +8 +8 1018.1 1018.0
09 20.02 штиль 0 10 км 9/4
[Cu hum Cs]
+15.0 +10.2 73 +15 +23 1018.2 1018.0
12 20.02 С 2 10 км 9/6
[Sc Cs]
+17.8 +8.5 54 +18 +20 1016.2 1016.0
18 20.02 штиль 0 10 км 9/9 840 м
[Sc]
+14.5 +10.5 77 +14 +14 1016.1 1016.0 +18.2
21 20.02 штиль 0 10 км 8/8 840 м
[Sc]
+14.3 +10.9 80 +14 +14 1015.2 1015.0
03 21.02 ЮВ 2 6000 м дымка 8/8 840 м
[Sc]
+13.0 +10.1 83 +12 +12 1014.4 1014.0
06 21.02 штиль 0 10 км 9/5
[Sc Ci sp]
+14.6 +11.2 80 +14 +17 1015.2 1015.0 +12.5
09 21.02 Ю 3 10 км 9/9 840 м
[Sc]
+18.0 +10.5 62 +18 +19 1014.0 1014.0
12 21.02 Ю 2 10 км 10/4 840 м
[Sc As trans]
+21.0 +13.1 61 +24 +26 комфорт 1011.7 1012.0
15 21.02 штиль 0 10 км 8/3
[Sc Ci sp]
+19.3 +14.1 72 +21 +21 комфорт 1011.5 1012.0
18 21.02 штиль 0 10 км 9/8 840 м
[Sc Ci sp]
+17.5 +12.4 72 +18 +18 1011.6 1012.0 +21.2
21 21.02 штиль 0 10 км 8/4
[Sc Ci sp]
+16.0 +10.5 70 +16 +16 1010.5 1011.0
00 22.02 штиль 0 10 км 10/10 840 м
[Sc]
+14.5 +10.7 78 +14 +14 1009.7 1010.0
03 22.02 штиль 0 10 км 9/9 840 м
[Sc]
+13.7 +10.0 78 +13 +13 1009.5 1010.0
06 22.02 Ю 2 10 км 9/0
[Cs]
+14.0 +9.7 75 +14 +18 1010.4 1010.0 +12.8
09 22.02 СЗ 2 10 км 9/9
[Cu med, cong]
+18.1 +12.9 72 +19 +20 1011.2 1011.0
12 22.02 С 3 10 км 6/0
[Ac trans Ci sp]
+20.7 +13.4 63 +24 +27 комфорт 1009.7 1010.0
18 22.02 С 4 10 км 8/4
[Cu hum Ci sp]
+16.4 +13.0 80 +16 +16 1012.3 1012.0 +22.0
06 23.02 штиль 0 6000 м дымка 9/5
[Cu Sc Cs]
+13.7 +11.2 85 +13 +16 1013.3 1013.0 +11.8
09 23.02 штиль 0 10 км 10/4 1000 м
[Sc As trans]
+16.3 +11.7 74 +16 +20 1012.3 1012.0
12 23.02 С 2 10 км 10/4 900 м
[Sc As op]
+18.0 +12.8 72 +19 +19 1009.6 1010.0
15 23.02 С 2 8000 м слабый дождь 10/4 900 м
[Sc As op]
+16.8 +13.8 82 +17 +17 1010.4 1010.0
21 23.02 СЗ 2 8000 м слабый дождь 10/5 900 м
[Sc As op]
+13.7 +12.4 92 +13 +13 1010.8 1011.0
00 24.02 штиль 0 10 км {дождь} 9/9 840 м
[Cu Sc]
+13.2 +12.1 93 +13 +13 1009.6 1010.0
03 24.02 В 3 8000 м дымка ясно +12.6 +11.8 95 +11 +11 1009.1 1009.0
09 24.02 СЗ 4 10 км 8/8 840 м
[Sc]
+16.8 +13.0 78 +16 +18 1009.9 1010.0
12 24.02 СЗ 5 10 км 8/8 840 м
[Sc]
+18.5 +12.2 67 +19 +19 1008.2 1008.0
15 24.02 СЗ 5 10 км 6/6 840 м
[Sc]
+17.5 +12.2 71 +17 +17 1009.1 1009.0
18 24.02 штиль 0 10 км 4/4 840 м
[Cu hum]
+15.2 +11.4 78 +15 +15 1010.7 1011.0 +19.2
21 24.02 штиль 0 10 км ясно +13.2 +11.3 88 +13 +13 1010.9 1011.0
03 25.02 штиль 0 6000 м дымка ясно +11.1 +9.9 92 +10 +10 1010.6 1011.0

 

Местоположение метеостанции Karbalaa (Ирак): широта 32.62 долгота 44.02 высота над уровнем моря 29 м.

В архиве по умолчанию представлена погода в Karbalaa за последнюю неделю. Архивные данные за месяц целиком и за предыдущие месяцы, начиная с января 2011 года, Вы можете получить, выбрав интересующий диапазон дат из раскрывающегося списка и нажав кнопку "Ввод!".

Внимание! Время в таблицах - всемирное. Для получения местного времени необходимо прибавить поправку, которая в Karbalaa равна 3 ч.

Смотрите также архив погоды в соседних городах и на ближайших метеорологических станциях:

Погода в Hella (Ирак) (45 км)
Погода в Baghdad (Ирак) (71 км)
Погода в Najaf (Ирак) (77 км)
Погода в Azizyah (Ирак) (104 км)
Погода в Ramadi (Ирак) (113 км)
Погода в Diwaniya (Ирак) (115 км)
Погода в Heet (Ирак) (115 км)
Погода в Ayn Al-Tamar (Ирак) (122 км)
Погода в Al-Khalis (Ирак) (143 км)
Погода в Ubaydah Bin Al Jarrah (Ирак) (163 км)

Пояснения к столбцам:

Ветер - указаны скорость ветра в м/с - средняя за 10 мин, порывы в срок и между сроками (в фигурных скобках) и направление, откуда дует ветер: С - северный, СВ - северо-восточный, В - восточный, ЮВ - юго-восточный, Ю - южный, ЮЗ - юго-западный, З - западный, СЗ - северо-западный.
Видимость - горизонтальная дальность видимости в метрах или километрах. При видимости от 1 до 10 км при отсутствии осадков обычно наблюдается дымка, при ухудшении видимости до 1 км и менее - туман. В сухую погоду видимость может ухудшаться дымом, пылью или мглою.
Явления - указаны атмосферные явления, наблюдавшиеся в срок или в последний час перед сроком; фигурными скобками обозначены явления, наблюдавшиеся между сроками (за 1-3 часа до срока); квадратными скобками обозначены град или гололедные отложения с указанием их диаметра в мм.
Облачность - указаны через наклонную черту общая и нижняя облачность в баллах и высота нижней границы облаков в метрах; квадратными скобками обозначены формы облаков: Ci - перистые, Cs - перисто-слоистые, Cc - перисто-кучевые, Ac - высококучевые, As - высокослоистые, Sc - слоисто-кучевые, Ns - слоисто-дождевые, Cu - кучевые, Cb - кучево-дождевые. Подробнее классификацию облаков см. в Атласе облаков (PDF).
T - Температура воздуха - температура, измеренная на высоте 2 м над землей.
Td - Температура точки росы - температура, при понижении до которой содержащийся в воздухе водяной пар достигнет насыщения.
f - Относительная влажность воздуха - влажноcть воздуха, измеренная на высоте 2 м над землей.
Te - Эффективная температура - температура, которую ощущает одетый по сезону человек в тени. Характеристика душности погоды. При расчете учитывается влияние влажности воздуха и скорости ветра на теплоощущения человека.
Tes - Эффективная температура на солнце - температура, которую ощущает человек, с поправкой на солнечный нагрев. Характеристика знойности погоды. Зависит от высоты солнца над горизонтом, облачности и скорости ветра. Ночью, в пасмурную погоду, а также при ветре 12 м/с и более поправка равна нулю.
P - Атмосферное давление - приведенное к уровню моря атмосферное давление.
Po - Атмосферное давление - измеренное на уровне метеостанции атмосферное давление.
Tmin - Минимальная температура - минимум температуры воздуха на высоте 2 м над землей.
Tmax - Максимальная температура - максимум температуры воздуха на высоте 2 м над землей.
R - Количество осадков - Количество выпавших осадков за период времени, мм. При наведении курсора мыши на число - период времени, за который выпало указанное количество осадков.
R24 - Количество осадков - Количество выпавших осадков за 24 часа, мм.
S - Снежный покров - Высота снежного покрова, см. При наведении курсора мыши на число - состояние снежного покрова и степень покрытия местности в баллах.